IBE584 LEMD-ELLX

Flight info

Callsign IBE584
Flight time 1h 49m
Altitude 34000
Route RBO4N RBO N867 DGO/N0440F380 L176 LUSEM DCT LULUT DCT ADABI DCT BOKNO UN858 TSU/N0440F340 UM163 LEQOS DCT CTL DCT MMD MMD2V
Aircraft A319/M-SDE3FGHIRWY/LB1

Departure

Time 2026-04-30 20:50
Airport Adolfo Suárez Madrid–Barajas Airport (LEMD)

Arrival

Time 2026-04-30 22:39
Airport Luxembourg-Findel International Airport (ELLX)
Time Latitude Longitude Altitude Speed Heading
2026-04-30 20:23 40.49005 -3.56645 1977 ft 0 kts 320°
2026-04-30 20:40 40.49002 -3.56642 1971 ft 3 kts 320°
2026-04-30 20:40 40.48988 -3.56626 1977 ft 3 kts 320°
2026-04-30 20:40 40.48973 -3.56610 1975 ft 3 kts 320°
2026-04-30 20:41 40.48945 -3.56577 1974 ft 3 kts 271°
2026-04-30 20:41 40.48953 -3.56557 1976 ft 3 kts 190°
2026-04-30 20:41 40.48971 -3.56553 1976 ft 3 kts 192°
2026-04-30 20:41 40.48982 -3.56549 1971 ft 0 kts 179°
2026-04-30 20:44 40.48979 -3.56549 1976 ft 2 kts 179°
2026-04-30 20:44 40.48942 -3.56547 1972 ft 4 kts 178°
2026-04-30 20:45 40.48862 -3.56622 1973 ft 10 kts 268°
2026-04-30 20:45 40.48863 -3.56732 1974 ft 15 kts 268°
2026-04-30 20:45 40.48861 -3.56889 1977 ft 17 kts 270°
2026-04-30 20:46 40.48961 -3.57113 1981 ft 10 kts 360°
2026-04-30 20:46 40.49026 -3.57114 1981 ft 6 kts 356°
2026-04-30 20:47 40.49056 -3.57212 1984 ft 8 kts 269°
2026-04-30 20:47 40.49060 -3.57291 1984 ft 9 kts 290°
2026-04-30 20:48 40.49225 -3.57452 1984 ft 18 kts
2026-04-30 20:48 40.49257 -3.57452 1985 ft 0 kts
2026-04-30 20:49 40.49265 -3.57452 1984 ft 2 kts
2026-04-30 20:49 40.49290 -3.57452 1983 ft 11 kts
2026-04-30 20:50 40.50459 -3.57452 1992 ft 147 kts 359°
2026-04-30 20:50 40.51616 -3.57466 2238 ft 172 kts 358°
2026-04-30 20:50 40.52808 -3.57488 2900 ft 171 kts 359°
2026-04-30 20:50 40.54018 -3.57492 3453 ft 183 kts 360°
2026-04-30 20:51 40.55358 -3.57444 3818 ft 204 kts
2026-04-30 20:51 40.58387 -3.56451 4600 ft 237 kts 17°
2026-04-30 20:51 40.59976 -3.55782 5469 ft 242 kts 18°
2026-04-30 20:52 40.61595 -3.55088 6334 ft 247 kts 18°
2026-04-30 20:52 40.63248 -3.54419 7220 ft 250 kts 15°
2026-04-30 20:52 40.66746 -3.53971 8979 ft 257 kts
2026-04-30 20:53 40.68538 -3.53724 9863 ft 261 kts 12°
2026-04-30 20:53 40.70234 -3.52815 10668 ft 267 kts 31°
2026-04-30 20:53 40.71695 -3.51147 11056 ft 292 kts 52°
2026-04-30 20:54 40.74166 -3.46354 11688 ft 340 kts 56°
2026-04-30 20:54 40.75520 -3.43717 12246 ft 353 kts 56°
2026-04-30 20:54 40.76915 -3.41015 12991 ft 359 kts 56°
2026-04-30 20:55 40.79787 -3.35483 14455 ft 371 kts 56°
2026-04-30 20:55 40.81254 -3.32657 15146 ft 375 kts 56°
2026-04-30 20:55 40.82738 -3.29797 15843 ft 380 kts 56°
2026-04-30 20:56 40.85783 -3.24001 17231 ft 388 kts 51°
2026-04-30 20:56 40.87824 -3.21671 17908 ft 392 kts 29°
2026-04-30 20:56 40.93081 -3.20531 19164 ft 390 kts 346°
2026-04-30 20:57 40.95735 -3.21352 19766 ft 394 kts 348°
2026-04-30 20:57 40.98483 -3.21593 20348 ft 400 kts
2026-04-30 20:57 41.01264 -3.21157 20961 ft 404 kts
2026-04-30 20:58 41.06861 -3.19974 21960 ft 410 kts
2026-04-30 20:58 41.09651 -3.19324 22535 ft 413 kts
2026-04-30 20:58 41.12527 -3.18637 23133 ft 417 kts
2026-04-30 20:58 41.15356 -3.17969 23703 ft 420 kts
2026-04-30 20:59 41.21166 -3.16635 24651 ft 427 kts
2026-04-30 20:59 41.24105 -3.15970 25104 ft 430 kts
2026-04-30 21:00 41.30062 -3.14625 26000 ft 437 kts
2026-04-30 21:00 41.36110 -3.13262 26859 ft 444 kts
2026-04-30 21:01 41.42245 -3.11873 27718 ft 451 kts
2026-04-30 21:01 41.45348 -3.11172 28148 ft 454 kts
2026-04-30 21:01 41.51612 -3.09745 28979 ft 460 kts
2026-04-30 21:02 41.54772 -3.09024 29435 ft 462 kts
2026-04-30 21:02 41.57945 -3.08304 29875 ft 464 kts
2026-04-30 21:02 41.61134 -3.07582 30265 ft 466 kts
2026-04-30 21:02 41.64343 -3.06852 30590 ft 469 kts
2026-04-30 21:03 41.67562 -3.06117 30921 ft 471 kts
2026-04-30 21:03 41.70802 -3.05376 31248 ft 473 kts
2026-04-30 21:03 41.74051 -3.04635 31579 ft 475 kts
2026-04-30 21:03 41.77316 -3.03888 31996 ft 474 kts
2026-04-30 21:04 41.80562 -3.03142 32482 ft 473 kts
2026-04-30 21:04 41.83799 -3.02399 32950 ft 472 kts
2026-04-30 21:04 41.90249 -3.00912 33863 ft 470 kts
2026-04-30 21:05 41.93471 -3.00162 34114 ft 470 kts
2026-04-30 21:05 41.96627 -2.99426 34160 ft 463 kts
2026-04-30 21:05 42.02969 -2.97957 34162 ft 458 kts
2026-04-30 21:06 42.09201 -2.96526 34169 ft 457 kts
2026-04-30 21:06 42.15501 -2.95064 34264 ft 464 kts
2026-04-30 21:07 42.18691 -2.94319 34538 ft 467 kts
2026-04-30 21:07 42.21894 -2.93568 34888 ft 467 kts
2026-04-30 21:07 42.25094 -2.92817 35282 ft 466 kts
2026-04-30 21:07 42.28283 -2.92072 35647 ft 465 kts
2026-04-30 21:08 42.31478 -2.91327 36012 ft 464 kts
2026-04-30 21:08 42.34655 -2.90583 36378 ft 464 kts
2026-04-30 21:08 42.37831 -2.89834 36716 ft 463 kts
2026-04-30 21:08 42.40995 -2.89015 37062 ft 463 kts 13°
2026-04-30 21:09 42.44050 -2.87641 37387 ft 464 kts 22°
2026-04-30 21:09 42.46912 -2.85629 37718 ft 464 kts 32°
2026-04-30 21:09 42.49512 -2.83040 38032 ft 464 kts 41°
2026-04-30 21:09 42.51930 -2.80140 38159 ft 464 kts 41°
2026-04-30 21:10 42.56747 -2.74330 38159 ft 463 kts 41°
2026-04-30 21:10 42.61566 -2.68516 38159 ft 463 kts 41°
2026-04-30 21:11 42.66379 -2.62696 38175 ft 463 kts 41°
2026-04-30 21:11 42.71184 -2.56871 38180 ft 463 kts 41°
2026-04-30 21:12 42.75991 -2.51032 38182 ft 463 kts 41°
2026-04-30 21:12 42.80754 -2.45216 38180 ft 463 kts 41°
2026-04-30 21:13 42.85540 -2.39362 38174 ft 463 kts 41°
2026-04-30 21:13 42.90331 -2.33495 38166 ft 463 kts 41°
2026-04-30 21:14 42.95115 -2.27636 38155 ft 462 kts 41°
2026-04-30 21:14 42.99909 -2.21766 38166 ft 463 kts 41°
2026-04-30 21:15 43.04692 -2.15888 38173 ft 463 kts 41°
2026-04-30 21:15 43.09469 -2.09968 38177 ft 463 kts 41°
2026-04-30 21:16 43.14239 -2.04036 38173 ft 464 kts 41°
2026-04-30 21:16 43.19023 -1.98101 38184 ft 464 kts 41°
2026-04-30 21:17 43.23800 -1.92166 38186 ft 464 kts 41°
2026-04-30 21:17 43.28572 -1.86221 38191 ft 464 kts 40°
2026-04-30 21:18 43.33728 -1.80995 38192 ft 460 kts 27°
2026-04-30 21:18 43.39267 -1.76598 38188 ft 460 kts 29°
2026-04-30 21:19 43.44659 -1.71806 38191 ft 462 kts 31°
2026-04-30 21:19 43.49981 -1.66837 38191 ft 463 kts 32°
2026-04-30 21:20 43.55330 -1.61907 38181 ft 463 kts 31°
2026-04-30 21:20 43.60709 -1.57036 38167 ft 463 kts 31°
2026-04-30 21:21 43.66094 -1.52154 38174 ft 463 kts 31°
2026-04-30 21:22 43.74129 -1.44838 38165 ft 463 kts 31°
2026-04-30 21:23 43.84893 -1.34993 38176 ft 464 kts 31°
2026-04-30 21:23 43.92962 -1.27575 38181 ft 464 kts 31°
2026-04-30 21:24 43.98337 -1.22618 38185 ft 464 kts 31°
2026-04-30 21:24 44.03704 -1.17654 38200 ft 464 kts 31°
2026-04-30 21:25 44.11747 -1.10208 38194 ft 462 kts 31°
2026-04-30 21:26 44.19759 -1.02754 38184 ft 461 kts 31°
2026-04-30 21:27 44.27755 -0.95308 38193 ft 460 kts 31°
2026-04-30 21:27 44.33075 -0.90344 38191 ft 460 kts 31°
2026-04-30 21:28 44.41161 -0.83191 38188 ft 455 kts 21°
2026-04-30 21:29 44.49851 -0.77903 38200 ft 454 kts 20°
2026-04-30 21:30 44.64317 -0.69050 38209 ft 454 kts 20°
2026-04-30 21:31 44.78741 -0.60165 38205 ft 453 kts 20°
2026-04-30 21:32 44.87404 -0.54819 38197 ft 453 kts 20°
2026-04-30 21:32 44.93184 -0.51246 38195 ft 453 kts 20°
2026-04-30 21:33 45.01840 -0.45865 38203 ft 453 kts 21°
2026-04-30 21:34 45.07608 -0.42275 38200 ft 453 kts 21°
2026-04-30 21:34 45.16238 -0.36877 38195 ft 452 kts 21°
2026-04-30 21:35 45.21985 -0.33283 38209 ft 451 kts 21°
2026-04-30 21:35 45.27726 -0.29678 38208 ft 451 kts 21°
2026-04-30 21:36 45.32486 -0.26686 38204 ft 450 kts 21°
2026-04-30 21:37 45.43940 -0.19456 38205 ft 450 kts 21°
2026-04-30 21:37 45.49662 -0.15833 38203 ft 450 kts 21°
2026-04-30 21:38 45.55381 -0.12208 38203 ft 450 kts 21°
2026-04-30 21:38 45.61102 -0.08573 38205 ft 450 kts 22°
2026-04-30 21:39 45.66813 -0.04934 38205 ft 450 kts 22°
2026-04-30 21:39 45.72534 -0.01271 38204 ft 450 kts 22°
2026-04-30 21:40 45.78258 0.02391 38204 ft 450 kts 23°
2026-04-30 21:40 45.83977 0.06060 38201 ft 450 kts 23°
2026-04-30 21:41 45.89690 0.09738 38201 ft 450 kts 23°
2026-04-30 21:41 45.95408 0.13423 38199 ft 450 kts 23°
2026-04-30 21:42 46.01124 0.17108 38204 ft 450 kts 24°
2026-04-30 21:42 46.06795 0.20793 38206 ft 450 kts 24°
2026-04-30 21:43 46.12501 0.24504 38204 ft 450 kts 24°
2026-04-30 21:43 46.18210 0.28210 38205 ft 450 kts 24°
2026-04-30 21:44 46.23909 0.31918 38209 ft 449 kts 24°
2026-04-30 21:44 46.29595 0.35633 38207 ft 448 kts 24°
2026-04-30 21:45 46.35266 0.39345 38203 ft 448 kts 24°
2026-04-30 21:45 46.40940 0.43066 38200 ft 447 kts 24°
2026-04-30 21:46 46.46607 0.46788 38201 ft 447 kts 24°
2026-04-30 21:46 46.52272 0.50534 38199 ft 447 kts 24°
2026-04-30 21:47 46.58061 0.53741 38196 ft 446 kts 12°
2026-04-30 21:47 46.64127 0.55712 38191 ft 446 kts 12°
2026-04-30 21:48 46.70188 0.57701 38181 ft 447 kts 12°
2026-04-30 21:48 46.76251 0.59703 38184 ft 447 kts 12°
2026-04-30 21:49 46.82311 0.61708 38174 ft 447 kts 12°
2026-04-30 21:49 46.88340 0.63714 38173 ft 447 kts 12°
2026-04-30 21:50 46.94428 0.65742 38184 ft 454 kts 12°
2026-04-30 21:50 47.00629 0.67810 38181 ft 467 kts 12°
2026-04-30 21:51 47.07101 0.69431 38181 ft 479 kts
2026-04-30 21:51 47.13707 0.70109 38182 ft 462 kts
2026-04-30 21:52 47.19951 0.70753 38180 ft 450 kts
2026-04-30 21:52 47.26182 0.71395 38182 ft 449 kts
2026-04-30 21:53 47.32414 0.72050 38183 ft 449 kts
2026-04-30 21:53 47.38646 0.72707 38185 ft 449 kts
2026-04-30 21:54 47.44879 0.73356 38187 ft 450 kts
2026-04-30 21:54 47.51076 0.74618 38187 ft 450 kts 16°
2026-04-30 21:55 47.57019 0.77502 38179 ft 450 kts 18°
2026-04-30 21:55 47.62969 0.80447 38174 ft 451 kts 19°
2026-04-30 21:56 47.68918 0.83400 38178 ft 451 kts 19°
2026-04-30 21:56 47.74880 0.86340 38179 ft 452 kts 19°
2026-04-30 21:57 47.80839 0.89288 38181 ft 451 kts 19°
2026-04-30 21:57 47.86503 0.93223 38184 ft 449 kts 32°
2026-04-30 21:58 47.91840 0.98066 38181 ft 450 kts 32°
2026-04-30 21:58 47.97198 1.02898 38185 ft 450 kts 32°
2026-04-30 21:59 48.02541 1.07754 38190 ft 450 kts 32°
2026-04-30 22:00 48.10551 1.15069 38197 ft 449 kts 32°
2026-04-30 22:00 48.18504 1.22335 38198 ft 448 kts 32°
2026-04-30 22:01 48.23831 1.27224 38201 ft 448 kts 33°
2026-04-30 22:01 48.29141 1.32109 38199 ft 447 kts 33°
2026-04-30 22:02 48.34438 1.36991 38198 ft 446 kts 33°
2026-04-30 22:02 48.39729 1.41878 38201 ft 446 kts 33°
2026-04-30 22:03 48.45007 1.46773 38196 ft 445 kts 33°
2026-04-30 22:03 48.50278 1.51679 38197 ft 445 kts 33°
2026-04-30 22:04 48.55548 1.56598 38193 ft 445 kts 33°
2026-04-30 22:05 48.63001 1.64822 38192 ft 441 kts 50°
2026-04-30 22:05 48.66266 1.72567 38192 ft 437 kts 69°
2026-04-30 22:06 48.68375 1.81174 38188 ft 436 kts 71°
2026-04-30 22:06 48.71505 1.94093 38188 ft 436 kts 71°
2026-04-30 22:07 48.73568 2.02678 38195 ft 436 kts 72°
2026-04-30 22:07 48.75634 2.11313 38199 ft 436 kts 71°
2026-04-30 22:08 48.77868 2.19874 38191 ft 437 kts 69°
2026-04-30 22:08 48.80207 2.28370 38189 ft 437 kts 69°
2026-04-30 22:09 48.82521 2.36903 38193 ft 437 kts 69°
2026-04-30 22:09 48.84793 2.45465 38221 ft 437 kts 70°
2026-04-30 22:10 48.85924 2.49755 38091 ft 438 kts 70°
2026-04-30 22:10 48.87052 2.54051 37807 ft 437 kts 70°
2026-04-30 22:10 48.88177 2.58341 37532 ft 437 kts 70°
2026-04-30 22:10 48.89297 2.62627 37255 ft 437 kts 70°
2026-04-30 22:11 48.91538 2.71202 36739 ft 436 kts 70°
2026-04-30 22:11 48.92658 2.75481 36478 ft 436 kts 70°
2026-04-30 22:11 48.93778 2.79750 36222 ft 435 kts 70°
2026-04-30 22:12 48.94898 2.84031 35977 ft 435 kts 70°
2026-04-30 22:12 48.96012 2.88311 35722 ft 434 kts 71°
2026-04-30 22:12 48.97121 2.92586 35473 ft 434 kts 71°
2026-04-30 22:12 48.98225 2.96847 35227 ft 434 kts 71°
2026-04-30 22:13 48.99274 3.00898 34996 ft 433 kts 71°
2026-04-30 22:13 49.00379 3.05170 34750 ft 433 kts 71°
2026-04-30 22:13 49.01475 3.09424 34501 ft 432 kts 71°
2026-04-30 22:13 49.02568 3.13683 34290 ft 431 kts 71°
2026-04-30 22:14 49.03659 3.17936 34215 ft 429 kts 71°
2026-04-30 22:14 49.05834 3.26428 34238 ft 431 kts 71°
2026-04-30 22:15 49.08013 3.34950 34235 ft 431 kts 71°
2026-04-30 22:15 49.10186 3.43476 34236 ft 431 kts 71°
2026-04-30 22:16 49.12336 3.52003 34241 ft 431 kts 72°
2026-04-30 22:17 49.15775 3.69460 34243 ft 429 kts 78°
2026-04-30 22:17 49.18017 3.82680 34248 ft 429 kts 78°
2026-04-30 22:18 49.20233 3.95866 34215 ft 429 kts 78°
2026-04-30 22:19 49.21722 4.04801 32218 ft 438 kts 78°
2026-04-30 22:19 49.22473 4.09297 31104 ft 435 kts 77°
2026-04-30 22:19 49.23956 4.18161 28891 ft 425 kts 78°
2026-04-30 22:20 49.24680 4.22507 27885 ft 417 kts 78°
2026-04-30 22:20 49.26073 4.30970 25998 ft 403 kts 78°
2026-04-30 22:20 49.26751 4.35098 25129 ft 396 kts 78°
2026-04-30 22:21 49.27411 4.39114 24650 ft 380 kts 79°
2026-04-30 22:21 49.28044 4.42972 24194 ft 367 kts 79°
2026-04-30 22:21 49.28658 4.46713 23739 ft 360 kts 78°
2026-04-30 22:21 49.29260 4.50416 23237 ft 357 kts 78°
2026-04-30 22:22 49.29853 4.54089 22791 ft 353 kts 79°
2026-04-30 22:22 49.30437 4.57721 22338 ft 349 kts 79°
2026-04-30 22:22 49.31014 4.61320 21887 ft 346 kts 78°
2026-04-30 22:22 49.31588 4.64889 21440 ft 344 kts 78°
2026-04-30 22:23 49.32160 4.68429 20983 ft 341 kts 78°
2026-04-30 22:23 49.32728 4.71951 20529 ft 339 kts 78°
2026-04-30 22:23 49.33292 4.75460 20067 ft 338 kts 78°
2026-04-30 22:23 49.33661 4.77770 19770 ft 337 kts 78°
2026-04-30 22:24 49.34215 4.81256 19315 ft 336 kts 78°
2026-04-30 22:24 49.34769 4.84742 18870 ft 335 kts 78°
2026-04-30 22:24 49.35317 4.88212 18389 ft 335 kts 78°
2026-04-30 22:24 49.35863 4.91676 17917 ft 334 kts 78°
2026-04-30 22:25 49.36407 4.95132 17470 ft 332 kts 78°
2026-04-30 22:25 49.36948 4.98557 17035 ft 330 kts 78°
2026-04-30 22:25 49.37489 5.01972 16605 ft 328 kts 78°
2026-04-30 22:25 49.38018 5.05363 16166 ft 327 kts 78°
2026-04-30 22:26 49.39079 5.12126 15318 ft 325 kts 77°
2026-04-30 22:26 49.39784 5.15421 14878 ft 325 kts 73°
2026-04-30 22:26 49.40508 5.18712 14449 ft 325 kts 73°
2026-04-30 22:27 49.41225 5.22001 14011 ft 325 kts 73°
2026-04-30 22:27 49.41938 5.25282 13547 ft 323 kts 73°
2026-04-30 22:27 49.43345 5.31787 12665 ft 318 kts 73°
2026-04-30 22:28 49.44669 5.37898 12138 ft 290 kts 73°
2026-04-30 22:28 49.45302 5.40827 11707 ft 288 kts 73°
2026-04-30 22:29 49.47169 5.49496 10615 ft 282 kts 73°
2026-04-30 22:29 49.47768 5.52298 10391 ft 267 kts 73°
2026-04-30 22:30 49.49475 5.63033 8432 ft 272 kts 81°
2026-04-30 22:31 49.50520 5.71582 6990 ft 263 kts 82°
2026-04-30 22:32 49.51472 5.79321 6099 ft 228 kts 82°
2026-04-30 22:32 49.52027 5.83880 5498 ft 207 kts 83°
2026-04-30 22:33 49.52800 5.90328 4477 ft 202 kts 84°
2026-04-30 22:33 49.53298 5.94500 3721 ft 194 kts 84°
2026-04-30 22:34 49.54769 6.00045 3031 ft 166 kts 68°
2026-04-30 22:35 49.55777 6.02737 3002 ft 130 kts 72°
2026-04-30 22:36 49.57480 6.07305 2881 ft 121 kts 71°
2026-04-30 22:36 49.57898 6.08426 2749 ft 121 kts 71°
2026-04-30 22:37 49.59162 6.11808 2271 ft 122 kts 67°
2026-04-30 22:37 49.59583 6.12937 2104 ft 121 kts 68°
2026-04-30 22:37 49.60435 6.15220 1737 ft 123 kts 63°
2026-04-30 22:38 49.61281 6.17477 1364 ft 120 kts 59°
2026-04-30 22:38 49.62087 6.19656 1192 ft 106 kts 59°
2026-04-30 22:39 49.62369 6.20410 1228 ft 57 kts 61°
2026-04-30 22:39 49.62655 6.21094 1241 ft 16 kts 37°
2026-04-30 22:40 49.62942 6.21336 1228 ft 15 kts 11°
2026-04-30 22:41 49.63085 6.21633 1226 ft 9 kts 30°
2026-04-30 22:41 49.63135 6.21616 1230 ft 3 kts 320°
2026-04-30 22:42 49.63125 6.21540 1230 ft 0 kts 238°